This demonstration page uses our WeatherBlox Daily Observations layout. Learn more.

Left ArrowRight Arrow

39.08367, -84.50855

Hourly Observations for July 27, 2015

Temp ( °F °C ) Dew Point ( °F °C ) Humidity (%) Winds ( mph kmh ) Pressure ( in mb ) Visibility ( mi km ) Precip ( " mm )
12:18 am 00:18 Mostly Cloudy with Nearby Thunderstorms 72 22 72 22 100 100 Calm 29.94 1014 4 6 0.00 0.00
12:37 am 00:37 Mostly Cloudy with Light Rain 73 22.8 72 22.2 96 96 W 3 6 29.94 1014 6 10 0.00 0.03
12:53 am 00:53 Cloudy with Light Rain 72 22.2 72 22.2 100 100 Calm 29.96 1015 5 8 0.00 0.03
1:53 am 01:53 Clear with Mist and Fog 73 22.8 73 22.8 100 100 Calm 29.94 1014 4 6 0.02 0.51
2:09 am 02:09 Clear with Mist and Fog 72 22.2 72 22.2 100 100 Calm 29.94 1014 2 3 0.00 0.00
2:42 am 02:42 Mostly Clear with Mist and Fog 72 22 72 22 100 100 NW 3 6 29.94 1014 3 5 0.00 0.00
2:53 am 02:53 Mostly Cloudy with Mist and Fog 73 22.8 73 22.8 100 100 Calm 29.95 1014 4 6 0.00 0.00
3:21 am 03:21 Partly Cloudy with Mist and Fog 72 22.2 72 22.2 100 100 Calm 29.94 1014 2 3 0.00 0.00
3:53 am 03:53 Mostly Cloudy with Mist and Fog 71 21.7 71 21.7 100 100 WSW 12 19 29.96 1015 2 3 0.00 0.00
4:00 am 04:00 Mostly Cloudy with Heavy Rain 72 22 72 22 100 100 N 9 15 29.91 1013 1 1 0.00 0.00
4:05 am 04:05 Cloudy with Strong Thunderstorms 72 22.2 72 22.2 100 100 ENE 9 15 29.94 1014 1 1 0.32 8.13
4:09 am 04:09 Cloudy with Strong Thunderstorms 72 22.2 72 22.2 100 100 VRB 5 7 29.94 1014 2 2 0.33 8.38
4:19 am 04:19 Cloudy with Strong Thunderstorms 72 22.2 72 22.2 100 100 ENE 13 20 29.91 1013 1 2 0.57 14.48
4:23 am 04:23 Cloudy with Light Rain 72 22.2 72 22.2 100 100 E 7 11 29.94 1014 2 2 0.57 14.48
4:25 am 04:25 Cloudy with Light Rain 72 22.2 72 22.2 100 100 ENE 5 7 29.94 1014 3 5 0.57 14.48
4:53 am 04:53 Mostly Cloudy with Mist and Fog 72 22.2 71 21.7 97 97 NNE 7 11 29.93 1014 5 8 0.57 14.48
5:53 am 05:53 Mostly Clear with Mist and Fog 72 22.2 71 21.7 97 97 Calm 29.94 1014 4 6 0.00 0.00
6:27 am 06:27 Partly Cloudy with Mist and Fog 71 21.7 71 21.7 100 100 Calm 29.94 1014 2 3 0.00 0.00
6:53 am 06:53 Partly Cloudy with Mist and Fog 70 21.1 70 21.1 100 100 Calm 29.96 1015 4 6 0.00 0.00
7:53 am 07:53 Mostly Cloudy with Mist and Fog 73 22.8 72 22.2 96 96 NE 3 6 29.97 1015 4 6 0.00 0.00
8:53 am 08:53 Partly Cloudy with Mist and Fog 75 23.9 73 22.8 94 94 E 3 6 29.98 1015 4 6 0.00 0.00
9:14 am 09:14 Mostly Cloudy with Mist and Fog 73 23 72 22 94 94 Calm 29.97 1015 5 8 0.00 0.00
9:53 am 09:53 Cloudy with Mist and Fog 75 23.9 73 22.8 94 94 Calm 30.00 1016 5 8 0.00 0.00
10:53 am 10:53 Mostly Cloudy with Mist and Fog 77 25 73 22.8 88 88 Calm 30.00 1016 6 10 0.00 0.00
11:53 am 11:53 Cloudy 79 26.1 74 23.3 85 85 ENE 5 7 30.00 1016 8 13 0.00 0.00
12:17 pm 12:17 Cloudy 81 27.2 74 23.3 79 79 Calm 29.97 1015 8 13 0.00 0.00
12:48 pm 12:48 Cloudy 82 28 75 24 79 79 NNE 5 7 29.97 1015 8 13 0.00 0.00
12:53 pm 12:53 Cloudy 82 27.8 74 23.3 77 77 ENE 3 6 29.98 1015 8 13 0.00 0.00
1:04 pm 13:04 Cloudy 82 28 75 24 79 79 NE 6 9 29.97 1015 8 13 0.00 0.00
1:53 pm 13:53 Cloudy 81 27.2 74 23.3 79 79 ENE 7 11 29.97 1015 10 16 0.00 0.00
2:53 pm 14:53 Mostly Cloudy 82 27.8 74 23.3 77 77 NNE 8 13 29.96 1015 8 13 0.00 0.00
3:53 pm 15:53 Mostly Cloudy 85 29.4 75 23.9 72 72 NE 7 11 29.96 1014 8 13 0.00 0.00
4:53 pm 16:53 Partly Cloudy 85 29.4 72 22.2 65 65 ENE 5 7 29.94 1014 10 16 0.00 0.00
5:53 pm 17:53 Partly Cloudy 84 28.9 74 23.3 72 72 NE 5 7 29.93 1014 10 16 0.00 0.00
6:53 pm 18:53 Mostly Sunny 84 28.9 74 23.3 72 72 ENE 7 11 29.92 1013 10 16 0.00 0.00
7:53 pm 19:53 Sunny 82 27.8 74 23.3 77 77 NE 6 9 29.92 1013 10 16 0.00 0.00
8:53 pm 20:53 Sunny 78 25.6 75 23.9 90 90 Calm 29.94 1014 10 16 0.00 0.00
9:53 pm 21:53 Clear with Mist and Fog 74 23.3 73 22.8 97 97 Calm 29.96 1015 6 10 0.00 0.00
10:53 pm 22:53 Clear with Mist and Fog 73 22.8 72 22.2 96 96 Calm 29.99 1016 6 10 0.00 0.00
11:53 pm 23:53 Clear with Mist and Fog 72 22.2 72 22.2 100 100 Calm 29.99 1016 4 6 0.00 0.00

Powered by AerisWeather